Mason City, IA

7:37 PM CDT on June 28, 2017 (GMT -0500)
Mason City Municipal

Weather History for KMCW - February, 2013

Change the Weather History Date:

Monday, February 11, 2013

  Actual Average Record
Temperature  
Mean Temperature 25 °F 19 °F  
Max Temperature 29 °F 28 °F 58 °F (1977)
Min Temperature 21 °F 10 °F -32 °F (1899)
Degree Days  
Heating Degree Days 40 46  
Month to date heating degree days 482 518  
Since 1 July heating degree days 4804 5129  
Cooling Degree Days 0 0  
Month to date cooling degree days 0 0  
Year to date cooling degree days 0 0  
Moisture  
Dew Point 19 °F    
Average Humidity 77    
Maximum Humidity 85    
Minimum Humidity 68    
Precipitation  
Precipitation 0.01 in 0.03 in 0.40 in (1965)
Month to date precipitation 0.39 0.35  
Year to date precipitation 0.86 1.17  
Snow  
Snow 1.10 in 0.30 in 6.80 in (1965)
Month to date snowfall 2.1 3.5  
Since 1 July snowfall 15.3 28.3  
Snow Depth 2.00 in    
Sea Level Pressure  
Sea Level Pressure 29.77 in    
Wind  
Wind Speed 26 mph (WNW)    
Max Wind Speed 36 mph    
Max Gust Speed 44 mph    
Visibility 5 miles    
Events Snow    
T = Trace of Precipitation, MM = Missing Value Source: NWS Daily Summary

Daily Weather History Graph

Daily Weather History Graph

Search for Another Location

Airport or City:

Trip Planner

Search our weather history database for the weather conditions in past years. The results will help you decide how hot, cold, wet, or windy it might be!

Date:

Astronomy

Feb. 11, 2013 Rise Set
Actual Time 7:16 AM CST 5:39 PM CST
Civil Twilight 6:46 AM CST 6:08 PM CST
Nautical Twilight 6:13 AM CST 6:42 PM CST
Astronomical Twilight 5:40 AM CST 7:15 PM CST
Moon 7:37 AM CST (2/11) 7:41 PM CST (2/11)
Length of Visible Light 11h 22m
Length of Day
10h 23m
Waxing Crescent, 3% of the Moon is Illuminated
Feb 11
Waxing Crescent
Feb 17
First Quarter
Feb 25
Full
Mar 4
Last Quarter
Mar 11
New

Hourly Weather History & Observations

Time (CST) Temp. Windchill Dew Point Humidity Pressure Visibility Wind Dir Wind Speed Gust Speed Precip Events Conditions
12:16 AM 28.4 °F 12.7 °F 24.8 °F 86% 29.41 in 2.5 mi West 29.9 mph 35.7 mph 0.00 in Snow Light Snow
12:27 AM 28.4 °F 13.0 °F 24.8 °F 86% 29.42 in 1.0 mi West 28.8 mph 35.7 mph 0.00 in Snow Light Snow
12:50 AM 28.4 °F 12.7 °F 24.8 °F 86% 29.44 in 2.0 mi West 29.9 mph 38.0 mph 0.00 in Snow Light Snow
12:53 AM 28.0 °F 12.3 °F 24.1 °F 85% 29.46 in 1.8 mi West 29.9 mph 38.0 mph 0.00 in Snow Light Snow
1:08 AM 28.4 °F 13.0 °F 24.8 °F 86% 29.45 in 1.2 mi West 28.8 mph 38.0 mph 0.01 in Snow Light Snow
1:23 AM 28.4 °F 13.5 °F 24.8 °F 86% 29.46 in 2.0 mi West 26.5 mph 34.5 mph 0.01 in Snow Light Snow
1:41 AM 28.4 °F 13.3 °F 24.8 °F 86% 29.47 in 3.0 mi West 27.6 mph 34.5 mph 0.01 in Snow Light Snow
1:48 AM 28.4 °F 13.5 °F 24.8 °F 86% 29.47 in 2.0 mi West 26.5 mph 33.4 mph 0.01 in Snow Light Snow
1:53 AM 28.0 °F 12.3 °F 24.1 °F 85% 29.49 in 2.0 mi West 29.9 mph 35.7 mph 0.01 in Snow Light Snow
2:12 AM 28.4 °F 13.5 °F 24.8 °F 86% 29.49 in 3.0 mi West 26.5 mph 36.8 mph 0.00 in Snow Light Snow
2:53 AM 28.0 °F 11.8 °F 23.0 °F 81% 29.54 in 3.0 mi West 32.2 mph 41.4 mph 0.00 in Snow Light Snow
3:08 AM 28.4 °F 12.5 °F 23.0 °F 80% 29.53 in 4.0 mi WNW 31.1 mph 39.1 mph 0.00 in Snow Light Snow
3:53 AM 27.0 °F 11.3 °F 23.0 °F 85% 29.58 in 4.0 mi WNW 27.6 mph 39.1 mph 0.00 in Snow Light Snow
4:53 AM 27.0 °F 9.8 °F 21.9 °F 81% 29.63 in 6.0 mi WNW 34.5 mph 41.4 mph 0.00 in Snow Light Snow
5:21 AM 26.6 °F 10.8 °F 21.2 °F 80% 29.63 in 2.0 mi WNW 27.6 mph 38.0 mph 0.00 in Snow Light Snow
5:53 AM 26.1 °F 8.4 °F 21.9 °F 84% 29.68 in 2.0 mi WNW 35.7 mph 40.3 mph 0.00 in Snow Light Snow
6:18 AM 26.6 °F 12.4 °F 21.2 °F 80% 29.68 in 1.8 mi WNW 21.9 mph 36.8 mph 0.00 in Snow Light Snow
6:25 AM 26.6 °F 10.6 °F 21.2 °F 80% 29.69 in 1.8 mi WNW 28.8 mph 40.3 mph 0.00 in Snow Light Snow
6:27 AM 26.6 °F 10.0 °F 21.2 °F 80% 29.69 in 2.0 mi WNW 31.1 mph 40.3 mph 0.00 in Snow Light Snow
6:37 AM 26.6 °F 10.8 °F 21.2 °F 80% 29.70 in 2.5 mi WNW 27.6 mph 43.7 mph 0.00 in   Overcast
6:44 AM 26.6 °F 10.8 °F 19.4 °F 74% 29.70 in 5.0 mi WNW 27.6 mph 43.7 mph 0.00 in   Haze
6:53 AM 25.0 °F 8.1 °F 19.9 °F 81% 29.74 in 4.0 mi WNW 29.9 mph 42.6 mph 0.00 in   Overcast
7:08 AM 24.8 °F 8.7 °F 19.4 °F 80% 29.72 in 7.0 mi WNW 26.5 mph 43.7 mph 0.00 in   Overcast
7:22 AM 24.8 °F 6.8 °F 19.4 °F 80% 29.74 in 1.8 mi WNW 34.5 mph 43.7 mph 0.00 in Snow Light Snow
7:34 AM 24.8 °F 7.6 °F 19.4 °F 80% 29.74 in 2.5 mi WNW 31.1 mph 43.7 mph 0.00 in   Overcast
7:45 AM 24.8 °F 9.6 °F 19.4 °F 80% 29.76 in 3.0 mi WNW 23.0 mph 40.3 mph 0.00 in   Overcast
7:53 AM 24.1 °F 7.7 °F 19.0 °F 81% 29.80 in 4.0 mi WNW 26.5 mph 35.7 mph 0.00 in   Overcast
8:25 AM 24.8 °F 8.7 °F 19.4 °F 80% 29.79 in 2.5 mi WNW 26.5 mph 40.3 mph 0.00 in   Overcast
8:33 AM 24.8 °F 8.1 °F 17.6 °F 74% 29.80 in 4.0 mi WNW 28.8 mph 36.8 mph 0.00 in   Haze
8:53 AM 24.1 °F 6.9 °F 18.0 °F 77% 29.84 in 4.0 mi WNW 29.9 mph 41.4 mph 0.00 in   Overcast
9:27 AM 24.8 °F 8.1 °F 17.6 °F 74% 29.83 in 2.5 mi WNW 28.8 mph 40.3 mph 0.00 in Snow Light Snow
9:34 AM 24.8 °F 8.1 °F 17.6 °F 74% 29.84 in 9.0 mi WNW 28.8 mph 40.3 mph 0.00 in   Overcast
9:53 AM 24.1 °F 6.9 °F 17.1 °F 75% 29.88 in 5.0 mi WNW 29.9 mph 39.1 mph 0.00 in   Haze
10:03 AM 24.8 °F 9.0 °F 17.6 °F 74% 29.85 in 2.0 mi WNW 25.3 mph 38.0 mph 0.00 in Snow Light Snow
10:13 AM 24.8 °F 7.6 °F 17.6 °F 74% 29.86 in 3.0 mi WNW 31.1 mph 40.3 mph 0.00 in   Overcast
10:53 AM 25.0 °F 8.1 °F 18.0 °F 75% 29.91 in 6.0 mi WNW 29.9 mph 39.1 mph 0.00 in   Haze
11:53 AM 26.1 °F 10.1 °F 17.1 °F 69% 29.94 in 6.0 mi WNW 27.6 mph 42.6 mph 0.00 in   Haze
12:53 PM 26.1 °F 9.3 °F 17.1 °F 69% 29.95 in 5.0 mi WNW 31.1 mph 39.1 mph 0.00 in Snow Light Snow
1:12 PM 24.8 °F 7.6 °F 17.6 °F 74% 29.93 in 2.5 mi WNW 31.1 mph 40.3 mph 0.00 in Snow Light Snow
1:19 PM 24.8 °F 8.4 °F 17.6 °F 74% 29.93 in 8.0 mi WNW 27.6 mph 39.1 mph 0.00 in   Overcast
1:53 PM 26.1 °F 10.7 °F 17.1 °F 69% 29.98 in 10.0 mi WNW 25.3 mph 39.1 mph 0.00 in   Overcast
2:15 PM 24.8 °F 7.9 °F 17.6 °F 74% 29.95 in 1.8 mi WNW 29.9 mph 38.0 mph 0.00 in Snow Light Snow
2:21 PM 24.8 °F 8.4 °F 17.6 °F 74% 29.95 in 3.0 mi WNW 27.6 mph 38.0 mph 0.00 in Snow Light Snow
2:53 PM 25.0 °F 8.9 °F 16.0 °F 69% 30.00 in 9.0 mi WNW 26.5 mph 35.7 mph 0.00 in   Overcast
3:53 PM 24.1 °F 8.3 °F 16.0 °F 71% 30.02 in 7.0 mi WNW 24.2 mph 32.2 mph 0.00 in   Overcast
4:53 PM 23.0 °F 8.0 °F 16.0 °F 74% 30.04 in 10.0 mi WNW 20.7 mph 28.8 mph N/A   Overcast
5:53 PM 23.0 °F 7.6 °F 15.1 °F 72% 30.06 in 10.0 mi WNW 21.9 mph 31.1 mph N/A   Overcast
6:53 PM 21.9 °F 6.9 °F 14.0 °F 72% 30.08 in 10.0 mi WNW 19.6 mph - N/A   Overcast
7:53 PM 21.9 °F 6.9 °F 14.0 °F 72% 30.09 in 10.0 mi WNW 19.6 mph 25.3 mph N/A   Overcast
8:53 PM 21.0 °F 7.1 °F 14.0 °F 74% 30.10 in 10.0 mi NW 16.1 mph - N/A   Overcast
9:53 PM 21.0 °F 8.6 °F 14.0 °F 74% 30.11 in 10.0 mi WNW 12.7 mph - N/A   Overcast
10:53 PM 21.0 °F 8.1 °F 14.0 °F 74% 30.11 in 10.0 mi NW 13.8 mph - N/A   Overcast
11:53 PM 21.0 °F 6.2 °F 14.0 °F 74% 30.12 in 10.0 mi WNW 18.4 mph - N/A   Overcast